Location: Heidgraben
(53.7081°N, 9.6576°E)
Time: 03:27:33
(UTC+00:00)

Cosmos 2369 Rocket - Pass Details

Date: 05 July 2020
Orbit: 830 x 851 km, 71.0° (Epoch: 03 August)

Event Time Altitude Azimuth Distance (km) Brightness Sun altitude
Rises 23:36:10 0° 327° (NNW) 3,386 6.3 -13.6°
Reaches altitude 10° 23:38:36 10° 325° (NW) 2,449 5.4 -13.6°
Maximum altitude 23:44:12 74° 242° (WSW) 867 2.2 -13.5°
Enters shadow 23:48:45 16° 159° (SSE) 2,055 3.7 -13.5°
